This demonstration page uses our WeatherBlox Daily Observations layout. Learn more.

Left ArrowRight Arrow

Hourly Observations for January 7, 2017

Temp ( °F °C ) Dew Point ( °F °C ) Humidity (%) Winds ( mph kmh ) Pressure ( in mb ) Visibility ( mi km ) Precip ( " mm )
12:53 am 00:53 Clear 17 -8.3 11 -11.7 77 77 Calm 30.55 1034 10 16 0.00 0.00
1:53 am 01:53 Clear 15 -9.4 10 -12.2 80 80 Calm 30.58 1036 10 16 0.00 0.00
2:53 am 02:53 Clear 13 -10.6 9 -12.8 84 84 Calm 30.59 1036 10 16 0.00 0.00
3:53 am 03:53 Clear 14 -10 9 -12.8 80 80 Calm 30.60 1036 10 16 0.00 0.00
4:53 am 04:53 Clear 12 -11.1 9 -12.8 87 87 N 5 7 30.62 1037 10 16 0.00 0.00
5:53 am 05:53 Clear 12 -11.1 8 -13.3 84 84 N 3 6 30.62 1037 10 16 0.00 0.00
6:53 am 06:53 Clear 11 -11.7 8 -13.3 88 88 Calm 30.64 1038 10 16 0.00 0.00
7:53 am 07:53 Clear 10 -12.2 7 -13.9 87 87 NE 5 7 30.66 1038 10 16 0.00 0.00
8:53 am 08:53 Sunny 18 -7.8 13 -10.6 81 81 E 3 6 30.65 1038 10 16 0.00 0.00
9:53 am 09:53 Sunny 25 -3.9 13 -10.6 60 60 SE 5 7 30.67 1039 10 16 0.00 0.00
10:53 am 10:53 Sunny 29 -1.7 13 -10.6 51 51 SSE 6 9 30.69 1039 10 16 0.00 0.00
11:53 am 11:53 Sunny 31 -0.6 12 -11.1 45 45 SE 9 15 30.66 1038 10 16 0.00 0.00
12:53 pm 12:53 Sunny 34 1.1 11 -11.7 38 38 SE 9 15 30.62 1037 10 16 0.00 0.00
1:53 pm 13:53 Sunny 37 2.8 10 -12.2 33 33 S 6 9 30.58 1036 10 16 0.00 0.00
2:53 pm 14:53 Sunny 39 3.9 8 -13.3 28 28 SE 8 13 30.55 1035 10 16 0.00 0.00
3:53 pm 15:53 Sunny 40 4.4 8 -13.3 27 27 SE 13 20 30.53 1034 10 16 0.00 0.00
4:53 pm 16:53 Sunny 40 4.4 8 -13.3 27 27 SSE 8 13 30.55 1034 10 16 0.00 0.00
5:53 pm 17:53 Sunny 37 2.8 8 -13.3 30 30 SSE 10 17 30.55 1035 10 16 0.00 0.00
6:53 pm 18:53 Clear 32 0 9 -12.8 38 38 SE 8 13 30.57 1035 10 16 0.00 0.00
7:53 pm 19:53 Clear 32 0 9 -12.8 38 38 ESE 6 9 30.57 1035 10 16 0.00 0.00
8:53 pm 20:53 Clear 33 0.6 9 -12.8 36 36 ESE 13 20 30.55 1035 10 16 0.00 0.00
9:53 pm 21:53 Clear 32 0 9 -12.8 38 38 ESE 13 20 30.55 1034 10 16 0.00 0.00
10:53 pm 22:53 Clear 31 -0.6 9 -12.8 40 40 ESE 10 17 30.55 1034 10 16 0.00 0.00
11:53 pm 23:53 Clear 30 -1.1 8 -13.3 39 39 ESE 16 26 30.51 1033 10 16 0.00 0.00

Powered by AerisWeather